{"data":{"norad_id":65415,"intl_designator":"2025-192M","name":"STARLINK-34238","alt_names":[],"object_type":"PAYLOAD","status":"ACTIVE","operator":null,"country":"US","launch_date":"2025-08-31","launch_site_code":"AFETR","launch_vehicle":null,"mission":null,"orbit_class":"UNKNOWN","rcs_meters":null,"size_class":null,"mass_kg":null,"dimensions":null,"purposes":["comms"],"wikipedia_slug":null,"has_3d_model":false,"image_url":null,"decayed_at":null,"tle_current":{"epoch":"2026-09-20T20:41:24.617472Z","epoch_age_seconds":83377,"freshness":"FRESH","line1":"1 65415U 25192M   26263.86209048  .00024550  00000+0  73524-3 0  9995","line2":"2 65415  53.1598  43.8324 0000677  78.2680 281.8398 15.34404898 59299","mean_motion":15.34404898,"eccentricity":6.77e-5,"inclination_deg":53.1598,"raan_deg":43.8324,"arg_perigee_deg":78.268,"mean_anomaly_deg":281.8398,"bstar":0.00073524,"rev_number":5929,"period_min":93.847458508308,"perigee_km":462.22555845893,"apogee_km":463.15180625632,"semimajor_km":6840.8256823576,"source":"CELESTRAK","updated_at":"2026-09-21T09:00:35.604484Z"}}}